Terminal Aerodrome Forecast
Issued by NWS Hastings, NE

Home | Current Version | Previous Version | Text Only | Print | Product List | Glossary On
Versions: 1 2 3 4 5 6 7 8 9 10 11 12 13 14 15 16 17 18 19 20 21 22 23 24 25 26 27 28 29 30
000
FTUS43 KGID 292320
TAFGRI
TAF
KGRI 292320Z 3000/3024 27006KT P6SM VCTS FEW025CB SCT250
     FM300400 VRB05KT P6SM SCT250
     FM300800 VRB03KT 5SM BR SCT250
     FM301500 15010KT P6SM SCT250=

USA.gov is the U.S. government's official web portal to all federal, state and local government web resources and services.